EW1578 Weather Reports


time (UTC)temp
C
wind
direction
speed
KPH
gust
KPH
rain 1hr
cm
rain 24hr
cm
rain mn
cm
humidity
%
barometer
mb
20260901000041 22 242 0.0 0.0 0.00 0.00 0.00 86 1016.3
20260831234538 22 242 0.0 0.0 0.00 0.00 0.00 85 1016.3
20260831233043 23 242 0.0 0.0 0.00 0.00 0.00 84 1016.3
20260831231538 23 242 0.0 0.0 0.00 0.00 0.00 84 1016.3
20260831230035 24 242 0.0 0.0 0.00 0.00 0.00 82 1016.4
20260831224533 24 242 0.0 0.0 0.00 0.00 0.00 80 1016.6
20260831223033 24 242 0.0 0.0 0.00 0.00 0.00 81 1016.5
20260831221535 24 242 0.0 0.0 0.00 0.00 0.00 81 1016.7
20260831220027 25 242 0.0 0.0 0.00 0.00 0.00 79 1016.8
20260831214625 24 248 0.0 0.0 0.00 0.00 0.00 82 1017.0
20260831213025 23 248 0.0 0.0 0.00 0.00 0.00 84 1017.1
20260831211554 23 246 0.0 3.2 0.00 0.00 0.00 84 1017.2
20260831210053 23 209 0.0 12.9 0.00 0.00 0.00 83 1017.2
20260831204549 24 246 0.0 8.0 0.00 0.00 0.00 82 1017.2
20260831203048 25 252 0.0 0.0 0.00 0.00 0.00 79 1017.2
20260831201547 24 252 0.0 0.0 0.00 0.00 0.00 80 1017.4
20260831200100 24 254 0.0 1.6 0.00 0.00 0.00 78 1017.5
20260831194608 24 253 0.0 6.4 0.00 0.00 0.00 79 1017.7
20260831193042 24 311 0.0 1.6 0.00 0.00 0.00 79 1017.8
20260831191540 25 60 0.0 0.0 0.00 0.00 0.00 76 1018.0
20260831190051 25 60 0.0 0.0 0.00 0.00 0.00 78 1018.1
20260831184537 25 60 0.0 0.0 0.00 0.00 0.00 77 1018.3
20260831183038 25 60 0.0 0.0 0.00 0.00 0.00 77 1018.3
20260831181537 24 60 0.0 0.0 0.00 0.00 0.00 76 1018.3
20260831180036 24 60 0.0 0.0 0.00 0.00 0.00 79 1018.3
20260831174535 25 60 0.0 0.0 0.00 0.00 0.00 77 1018.5
20260831173013 25 60 0.0 0.0 0.00 0.00 0.00 76 1018.6
20260831171512 25 60 0.0 0.0 0.00 0.00 0.00 75 1018.3
20260831170008 25 60 0.0 0.0 0.00 0.00 0.00 73 1018.6
20260831164501 25 60 0.0 0.0 0.00 0.00 0.00 76 1018.6
20260831163102 25 60 0.0 0.0 0.00 0.00 0.00 76 1018.6
20260831161558 25 60 0.0 0.0 0.00 0.00 0.00 73 1018.6
20260831160027 25 60 0.0 0.0 0.00 0.00 0.00 76 1018.6
20260831154531 24 347 0.0 0.0 0.00 0.00 0.00 77 1018.6
20260831153052 24 327 0.0 0.0 0.00 0.00 0.00 77 1018.8
20260831151547 23 327 0.0 0.0 0.00 0.00 0.00 80 1019.0
20260831150044 23 327 0.0 0.0 0.00 0.00 0.00 78 1019.0
20260831144545 23 326 0.0 0.0 0.00 0.00 0.00 80 1019.1
20260831143043 23 326 0.0 0.0 0.00 0.00 0.00 79 1019.1
20260831141542 23 325 0.0 0.0 0.00 0.00 0.00 81 1019.1
20260831140047 22 325 0.0 0.0 0.00 0.00 0.00 81 1019.1
20260831134539 22 326 0.0 0.0 0.00 0.00 0.00 80 1019.0
20260831133034 22 20 0.0 0.0 0.00 0.00 0.00 83 1018.8
20260831131530 22 80 0.0 0.0 0.00 0.00 0.00 83 1018.9
20260831130025 22 77 0.0 0.0 0.00 0.00 0.00 84 1018.9
20260831124524 22 76 0.0 3.2 0.00 0.00 0.00 86 1018.8
20260831123030 21 144 0.0 0.0 0.00 0.00 0.00 89 1018.9
20260831121517 20 194 0.0 0.0 0.00 0.00 0.00 91 1018.9
20260831120012 20 194 0.0 0.0 0.00 0.00 0.00 92 1018.9
20260831114511 20 194 0.0 0.0 0.00 0.00 0.00 93 1018.9
20260831113008 20 194 0.0 0.0 0.00 0.00 0.00 93 1018.5
20260831111507 20 194 0.0 0.0 0.00 0.00 0.00 93 1018.6
20260831110006 19 194 0.0 0.0 0.00 0.00 0.00 92 1018.3
20260831104502 19 194 0.0 0.0 0.00 0.00 0.00 92 1018.2
20260831103000 19 194 0.0 0.0 0.00 0.00 0.00 92 1017.9
20260831101600 19 194 0.0 0.0 0.00 0.00 0.00 92 1018.2
20260831100029 19 194 0.0 0.0 0.00 0.00 0.00 91 1017.9
20260831094532 20 194 0.0 0.0 0.00 0.00 0.00 91 1017.9
20260831093058 20 194 0.0 0.0 0.00 0.00 0.00 91 1017.9
20260831091555 20 194 0.0 0.0 0.00 0.00 0.00 91 1017.7
20260831090053 20 194 0.0 0.0 0.00 0.00 0.00 91 1017.6
20260831084601 20 194 0.0 0.0 0.00 0.00 0.00 90 1017.6
20260831083052 20 194 0.0 0.0 0.00 0.00 0.00 90 1017.6
20260831081552 20 194 0.0 0.0 0.00 0.00 0.00 90 1017.5
20260831080056 20 194 0.0 0.0 0.00 0.00 0.00 89 1017.6
20260831074549 20 194 0.0 0.0 0.00 0.00 0.00 89 1017.8
20260831073052 21 194 0.0 0.0 0.00 0.00 0.00 88 1017.7
20260831071547 21 194 0.0 0.0 0.00 0.00 0.00 87 1017.6
20260831070048 21 194 0.0 0.0 0.00 0.00 0.00 87 1017.7
20260831064544 21 194 0.0 0.0 0.00 0.00 0.00 86 1017.6
20260831063043 21 194 0.0 0.0 0.00 0.00 0.00 87 1017.5
20260831061542 22 194 0.0 0.0 0.00 0.00 0.00 86 1017.7
20260831060033 22 194 0.0 0.0 0.00 0.00 0.00 86 1017.7
20260831054533 22 194 0.0 0.0 0.00 0.00 0.00 87 1017.6
20260831053032 22 194 0.0 0.0 0.00 0.00 0.00 85 1017.3
20260831051540 22 194 0.0 0.0 0.00 0.00 0.00 85 1017.3
20260831050030 22 194 0.0 0.0 0.00 0.00 0.00 84 1017.3
20260831044530 22 291 0.0 0.0 0.00 0.00 0.00 84 1017.8
20260831043029 22 291 0.0 0.0 0.00 0.00 0.00 83 1017.7
20260831041541 22 291 0.0 0.0 0.00 0.00 0.00 84 1017.6
20260831040032 22 290 0.0 0.0 0.00 0.00 0.00 84 1018.0
20260831034531 22 290 0.0 0.0 0.00 0.00 0.00 85 1017.9
20260831033031 22 291 0.0 0.0 0.00 0.00 0.00 84 1017.9
20260831031531 22 292 0.0 0.0 0.00 0.00 0.00 86 1017.9
20260831030038 22 293 0.0 0.0 0.00 0.00 0.00 87 1017.9
20260831024539 22 293 0.0 0.0 0.00 0.00 0.00 89 1017.9
20260831023036 22 293 0.0 0.0 0.00 0.00 0.00 89 1017.9
20260831021539 23 293 0.0 0.0 0.00 0.00 0.00 90 1018.0
20260831020032 23 293 0.0 0.0 0.00 0.00 0.00 89 1017.9
20260831014542 23 293 0.0 0.0 0.00 0.00 0.00 89 1017.8
20260831013036 23 293 0.0 0.0 0.00 0.00 0.00 89 1017.9
20260831011535 23 293 0.0 0.0 0.00 0.00 0.00 89 1017.9
20260831010030 23 293 0.0 0.0 0.00 0.00 0.00 89 1017.7
20260831004529 23 293 0.0 0.0 0.00 0.00 0.00 88 1017.4
20260831003028 23 293 0.0 0.0 0.00 0.00 0.00 87 1017.1
20260831001527 24 293 0.0 0.0 0.00 0.00 0.00 85 1016.9